Change the Weather History Date:

Thursday, October 11, 2012

  Actual Average Record
Temperature  
Mean Temperature 60 °F -  
Max Temperature 62 °F 56 °F 64 °F (2005)
Min Temperature 59 °F 51 °F 50 °F (2013)
Degree Days  
Heating Degree Days 4    
Growing Degree Days 10 (Base 50)    
Moisture  
Dew Point 60 °F    
Average Humidity 100    
Maximum Humidity 100    
Minimum Humidity 94    
Precipitation  
Precipitation 0.00 in - - ()
Sea Level Pressure  
Sea Level Pressure 29.57 in    
Wind  
Wind Speed 14 mph ()    
Max Wind Speed 24 mph    
Max Gust Speed -    
Visibility 5.4 miles    
Events Fog , Rain    
Averages and records for this station are not official NWS values.
T = Trace of Precipitation, MM = Missing Value Source: Averaged Metar Reports

Daily Weather History Graph

Daily Weather History Graph

Search for Another Location

Airport or City:

Trip Planner

Search our weather history database for the weather conditions in past years. The results will help you decide how hot, cold, wet, or windy it might be!

Date:

Astronomy

Oct. 11, 2012 Rise Set
Actual Time 7:24 AM BST 6:25 PM BST
Civil Twilight 6:52 AM BST 6:57 PM BST
Nautical Twilight 6:15 AM BST 7:34 PM BST
Astronomical Twilight 5:37 AM BST 8:12 PM BST
Moon 2:24 AM BST (10/11) 4:13 PM BST (10/11)
Length of Visible Light 12h 05m
Length of Day
11h 01m
Waning Crescent, 20% of the Moon is Illuminated
Oct 11
Waning Crescent
Oct 15
New
Oct 22
First Quarter
Oct 29
Full
Nov 7
Last Quarter

Hourly Weather History & Observations

Time (BST) Temp. Dew Point Humidity Pressure Visibility Wind Dir Wind Speed Gust Speed Precip Events Conditions
6:50 AM 59.0 °F 59.0 °F 100% 29.62 in 6.2 mi SSE 15.0 mph - N/A   Mostly Cloudy
7:20 AM 59.0 °F 59.0 °F 100% 29.62 in 6.2 mi SSE 13.8 mph - N/A   Scattered Clouds
7:50 AM 59.0 °F 59.0 °F 100% 29.62 in 6.2 mi SSE 12.7 mph - N/A   Mostly Cloudy
8:20 AM 59.0 °F 59.0 °F 100% 29.62 in 6.2 mi SSE 13.8 mph - N/A Rain Light Rain Showers
8:50 AM 59.0 °F 59.0 °F 100% 29.62 in 6.2 mi SSE 12.7 mph - N/A Rain Light Rain Showers
9:50 AM 59.0 °F 59.0 °F 100% 29.59 in 5.0 mi SSE 15.0 mph - N/A Rain Light Rain Showers
10:20 AM 59.0 °F 59.0 °F 100% 29.59 in 0.4 mi SSE 16.1 mph - N/A Fog , Rain Heavy Rain Showers
10:50 AM 60.8 °F 60.8 °F 100% 29.59 in 6.2 mi SSE 15.0 mph - N/A   Mostly Cloudy
11:20 AM 60.8 °F 60.8 °F 100% 29.59 in 6.2 mi South 12.7 mph - N/A   Scattered Clouds
11:50 AM 60.8 °F 60.8 °F 100% 29.56 in 6.2 mi South 17.3 mph - N/A   Scattered Clouds
12:20 PM 60.8 °F 60.8 °F 100% 29.56 in 6.2 mi South 17.3 mph - N/A Rain Light Rain Showers
12:50 PM 62.6 °F 60.8 °F 94% 29.56 in 6.2 mi South 13.8 mph - N/A   Scattered Clouds
1:20 PM 60.8 °F 60.8 °F 100% 29.56 in 6.2 mi SSW 13.8 mph - N/A   Scattered Clouds
1:50 PM 60.8 °F 60.8 °F 100% 29.56 in 6.2 mi SW 13.8 mph - N/A   Mostly Cloudy
2:20 PM 59.0 °F 59.0 °F 100% 29.53 in 6.2 mi SW 19.6 mph - N/A   Mostly Cloudy
2:50 PM 60.8 °F 60.8 °F 100% 29.53 in 5.6 mi SW 17.3 mph - N/A   Mostly Cloudy
3:20 PM 60.8 °F 60.8 °F 100% 29.53 in 6.2 mi SW 18.4 mph - N/A   Mostly Cloudy
3:50 PM 59.0 °F 59.0 °F 100% 29.53 in 6.2 mi SW 17.3 mph - N/A   Mostly Cloudy
4:20 PM 59.0 °F 59.0 °F 100% 29.53 in 6.2 mi SW 20.7 mph - N/A   Mostly Cloudy
4:50 PM 59.0 °F 59.0 °F 100% 29.53 in 4.3 mi SW 24.2 mph - N/A   Light Drizzle
5:20 PM 59.0 °F 59.0 °F 100% 29.53 in 2.5 mi WSW 18.4 mph - N/A   Light Drizzle
5:50 PM 59.0 °F 59.0 °F 100% 29.53 in 0.9 mi WSW 18.4 mph - N/A   Light Drizzle
6:20 PM 59.0 °F 59.0 °F 100% 29.56 in 6.2 mi West 20.7 mph - N/A Rain Light Rain